GPS III SV05

operational
NORAD ID: 48859 Int'l Des: 2021-054 Owner: SMC Country: US Constellation: GPS
MEOCIRCULARGNSS

GPS III SV05について

説明を読み込み中...

リアルタイム位置

3D地球を読み込み中...

次回通過

高度履歴

Altitude vs Time

uPlot chart will show altitude changes over time

軌道要素

1 48859U 21054A 25289.21780061 -.00000094 00000-0 00000-0 0 9991
2 48859 55.2756 342.2645 0024103 230.2429 138.6846 2.00556480 31868
Epoch: Oct 16, 2025 • Age: 253 hours

現在のステータス

高度 20250.0 km
速度 3.87 km/s
衛星直下点 50.72°N, 85.82°E
打ち上げ日 Jun 17, 2021
運用期間 4.3 years
タイプ navigation

技術仕様

分類 Payload
質量 4400.00 kg
乾燥質量 2160.00 kg
総質量 4400.00 kg
長さ 3.40 m
直径 1.80 m
スパン 14.00 m
形状 Box + 2 pan
製造者 LMSSD
バスタイプ A2100
フェーズステータス In Orbit
所有者/国 SMC/US

大規模コンステレーション

Loading constellations...